[[{"header":{"parameterUnit":"m.s-1","parameterCategory":1,"la1":30.2991,"la2":30.254,"lo1":-89.0895,"lo2":-89.0444,"dy":0.0017,"dx":0.0017,"nx":28,"ny":28,"refTime":"2023-09-21T21:00:00:Z","depth":0,"parameterNumber":2,"parameterNumberName":"U-component_of_WINDS"},"data":[0,0,0,0,0,0,0,0,0,0,0,0,0,0,0,0,0,0,0,0,0,0,0,0,0,0,0,0,0,0,0,0,0,0,0,0,0,0,0,0,0,0,0,0,0,0,0,0,0,0,0,0,0,0,0,0,0,0,-5.2053,-5.2053,0,-5.2074,-5.2075,-5.2075,-5.1937,-5.1933,-5.1929,-5.1925,-5.1948,-5.1953,-5.1957,0,0,0,0,0,0,0,0,0,0,0,0,0,-5.1893,-5.1897,-5.2053,-5.2053,-5.2053,-5.2074,-5.2075,-5.2075,-5.1937,-5.1933,-5.1928,-5.1923,-5.1947,-5.1952,-5.1957,0,0,0,0,0,0,0,0,0,0,0,0,0,-5.1944,-5.1898,-5.2052,-5.1987,-5.1981,-5.2074,-5.2075,-5.2075,-5.1938,-5.1933,-5.1927,-5.1921,-5.1945,-5.1952,-5.1958,-5.2115,0,0,-5.1977,-5.198,0,0,0,0,0,0,0,0,-5.1941,-5.195,-5.1996,-5.1992,-5.1986,-5.1997,-5.2027,-5.2088,-5.194,-5.1955,-5.1925,-5.1918,-5.1969,-5.1973,-5.199,-5.2116,-5.2117,-5.1978,-5.1982,-5.1985,-5.1986,0,0,0,0,0,0,0,-5.1938,-5.1948,-5.2061,-5.1997,-5.1991,-5.1957,-5.1958,-5.2038,-5.1995,-5.1953,-5.1943,-5.1948,-5.1965,-5.1985,-5.199,-5.2117,-5.1978,-5.1983,-5.1987,-5.199,-5.2375,-5.2381,0,0,0,0,0,0,-5.1943,-5.1946,-5.206,-5.2062,-5.1948,-5.1965,-5.1965,-5.1999,-5.1993,-5.1987,-5.1953,-5.1941,-5.1976,-5.1983,-5.199,-5.2175,-5.1985,-5.1991,-5.1994,-5.2369,-5.2376,-5.2383,0,0,0,0,0,0,-5.194,-5.1954,-5.2059,-5.2001,-5.2012,-5.1974,-5.2013,-5.2003,-5.2022,-5.1993,-5.1985,-5.198,-5.1972,-5.1981,-5.2085,-5.2174,-5.1993,-5.1999,-5.2361,-5.2371,-5.238,-5.2547,0,0,0,0,0,0,-5.1936,-5.1954,-5.2013,-5.2004,-5.2016,-5.2154,-5.2018,-5.2007,-5.2033,-5.2018,-5.2017,-5.2011,-5.1968,-5.2077,-5.2092,-5.218,-5.2004,-5.2353,-5.2366,-5.2377,-5.2533,-5.2561,-5.2584,0,0,0,0,0,-5.1931,-5.2058,-5.2017,-5.2031,-5.2088,-5.216,-5.2167,-5.2115,-5.2041,-5.21,-5.2082,-5.2011,-5.2162,-5.2088,-5.2104,-5.2196,-5.2347,-5.2362,-5.2376,-5.2522,-5.2555,-5.2584,0,0,0,0,0,0,-5.2079,-5.2056,-5.2009,-5.2138,-5.2152,-5.2136,-5.2209,-5.2152,-5.2187,-5.2172,-5.2106,-5.2107,-5.2223,-5.2219,-5.2138,-5.2348,-5.2242,-5.226,-5.2347,-5.2379,-5.2404,-5.2403,-5.201,0,0,0,0,0,-5.2127,-5.2186,-5.2163,-5.2279,-5.2288,-5.2248,-5.2277,-5.2236,-5.2248,-5.2253,-5.2242,-5.2257,-5.2308,-5.2343,-5.2387,-5.2531,-5.253,-5.2602,-5.2628,-5.2649,-5.2666,-5.2745,-5.2777,-5.2431,-5.2431,-5.243,0,0,-5.2226,-5.2221,-5.2262,-5.2308,-5.2314,-5.2379,-5.2254,-5.2326,-5.2374,-5.2264,-5.2362,-5.2356,-5.2367,-5.2493,-5.2548,-5.2493,-5.2762,-5.2667,-5.2685,-5.269,-5.2763,-5.2796,-5.2825,-5.244,-5.2439,-5.2437,0,0,-5.2439,-5.2441,-5.2538,-5.2548,-5.2558,-5.2531,-5.2555,-5.2549,-5.254,-5.2637,-5.2557,-5.2613,-5.2701,-5.2714,-5.2732,-5.2953,-5.289,-5.2969,-5.3104,-5.3181,-5.3208,-5.3232,-5.3313,-5.3343,-5.2986,-5.2986,-5.2986,0,-5.2561,-5.2655,-5.2596,-5.2675,-5.2699,-5.2602,-5.2702,-5.2713,-5.2739,-5.2758,-5.2696,-5.2807,-5.2808,-5.2936,-5.299,-5.3007,-5.3034,-5.2969,-5.3209,-5.3232,-5.3254,-5.3331,-5.3361,-5.2996,-5.2995,-5.2994,-5.2993,0,-5.2805,-5.2871,-5.2949,-5.2977,-5.3009,-5.3097,-5.3053,-5.3093,-5.3049,-5.3029,-5.3131,-5.3129,-5.3173,-5.32,-5.3158,-5.3324,-5.329,-5.322,-5.3112,-5.3298,-5.3369,-5.3397,-5.301,-5.3006,-5.3003,-5.3001,0,0,-5.3113,-5.3108,-5.3138,-5.3151,-5.3156,-5.3207,-5.3292,-5.3335,-5.3371,-5.3392,-5.3463,-5.3541,-5.3477,-5.3498,-5.3456,-5.3523,-5.3702,-5.3445,-5.3444,-5.3495,-5.3887,-5.3941,-5.3976,-5.3659,-5.3665,-5.3669,-5.3887,0,-5.3324,-5.3469,-5.342,-5.3567,-5.3629,-5.3539,-5.3614,-5.3626,-5.361,-5.366,-5.3641,-5.3699,-5.3608,-5.3621,-5.3683,-5.3667,-5.378,-5.365,-5.3726,-5.373,-5.3728,-5.4013,-5.407,-5.4276,-5.3914,-5.3919,-5.3922,0,-5.3589,-5.3622,-5.3777,-5.3774,-5.3798,-5.3866,-5.3902,-5.3951,-5.3964,-5.3947,-5.3972,-5.3916,-5.4,-5.3891,-5.4008,-5.3921,-5.3949,-5.3946,-5.3953,-5.3959,-5.3839,-5.4029,-5.4339,-5.4372,-5.3965,-5.3961,-5.3958,0,-5.3801,-5.3884,-5.3987,-5.4001,-5.3999,-5.405,-5.4052,-5.4058,-5.4088,-5.412,-5.414,-5.4181,-5.4205,-5.4239,-5.4197,-5.4121,-5.4321,-5.4207,-5.4311,-5.4313,-5.4359,-5.4357,-5.468,-5.4374,-5.4373,-5.4373,-5.4372,0,-5.4043,-5.4142,-5.4083,-5.4147,-5.4256,-5.4198,-5.4308,-5.4299,-5.4307,-5.4368,-5.4292,-5.4352,-5.4292,-5.4347,-5.4314,-5.4417,-5.4428,-5.4418,-5.4409,-5.4426,-5.4428,-5.4445,-5.4431,-5.4381,-5.4379,-5.4377,-5.4376,0,-5.4299,-5.4263,-5.4371,-5.4362,-5.4362,-5.4443,-5.4435,-5.4494,-5.4472,-5.4552,-5.4567,-5.4534,-5.4594,-5.4555,-5.4616,-5.4594,-5.473,-5.4699,-5.4726,-5.4719,-5.4826,-5.4817,-5.5173,-5.5218,-5.4881,-5.4884,-5.4887,0,-5.4457,-5.4531,-5.453,-5.4566,-5.4573,-5.4632,-5.4662,-5.4609,-5.4644,-5.4665,-5.4723,-5.4777,-5.4817,-5.4919,-5.49,-5.4947,-5.4919,-5.504,-5.4925,-5.4942,-5.4924,-5.4921,-5.4929,-5.5064,-5.5068,-5.5071,-5.5074,0,-5.4741,-5.472,-5.4767,-5.4809,-5.4848,-5.4878,-5.4902,-5.4936,-5.4883,-5.4926,-5.4988,-5.5019,-5.5082,-5.5138,-5.5177,-5.5179,-5.512,-5.511,-5.5137,-5.5157,-5.517,-5.5167,-5.4792,-5.5103,-5.51,-5.5098,-5.5096,-5.5095,-5.4954,-5.5017,-5.5027,-5.5082,-5.5095,-5.512,-5.5176,-5.5162,-5.5212,-5.5259,-5.5224,-5.5298,-5.531,-5.5357,-5.5368,-5.5425,-5.5376,-5.5414,-5.5424,-5.5435,-5.5451,-5.516,-5.5432,-5.5431,-5.543,-5.5429,-5.5429,0,-5.5236,-5.5239,-5.529,-5.5327,-5.5372,-5.531,-5.5334,-5.5376,-5.5441,-5.5458,-5.55,-5.5572,-5.5625,-5.5612,-5.5661,-5.5709,-5.5683,-5.5724,-5.5721,-5.5723,-5.5491,-5.5464,-5.5745,-5.5745,-5.5745,-5.5745,-5.5745,-5.5745,-5.5389,-5.5493,-5.5474,-5.5583,-5.5584,-5.5656,-5.5676,-5.5699,-5.5712,-5.5796,-5.584,-5.5831,-5.5836,-5.5885,-5.5932,-5.5927,-5.5949,-5.6001,-5.5987,-5.577,-5.5739,-5.571,-5.5684,-5.6006,-5.6006,-5.6214,-5.6216,-5.6217]},{"header":{"parameterUnit":"m.s-1","parameterCategory":1,"la1":30.2991,"la2":30.254,"lo1":-89.0895,"lo2":-89.0444,"dy":0.0017,"dx":0.0017,"nx":28,"ny":28,"refTime":"2023-09-21T21:00:00:Z","depth":0,"parameterNumber":3,"parameterNumberName":"V-component_of_WINDS"},"data":[0,0,0,0,0,0,0,0,0,0,0,0,0,0,0,0,0,0,0,0,0,0,0,0,0,0,0,0,0,0,0,0,0,0,0,0,0,0,0,0,0,0,0,0,0,0,0,0,0,0,0,0,0,0,0,0,0,0,-1.8314,-1.8313,0,-1.8297,-1.8297,-1.8297,-1.8253,-1.8252,-1.8251,-1.8251,-1.8234,-1.8235,-1.8235,0,0,0,0,0,0,0,0,0,0,0,0,0,-1.8306,-1.8306,-1.8314,-1.8313,-1.8313,-1.8297,-1.8297,-1.8297,-1.8253,-1.8252,-1.8251,-1.825,-1.8234,-1.8235,-1.8235,0,0,0,0,0,0,0,0,0,0,0,0,0,-1.8301,-1.8306,-1.8314,-1.829,-1.8287,-1.8297,-1.8297,-1.8297,-1.8254,-1.8252,-1.8251,-1.825,-1.8234,-1.8235,-1.8235,-1.8268,0,0,-1.8237,-1.8238,0,0,0,0,0,0,0,0,-1.8302,-1.8302,-1.8293,-1.8291,-1.8289,-1.8276,-1.8288,-1.8287,-1.8254,-1.8266,-1.8251,-1.8249,-1.8249,-1.8249,-1.8249,-1.8267,-1.8266,-1.8237,-1.8238,-1.8238,-1.8238,0,0,0,0,0,0,0,-1.8302,-1.8302,-1.8307,-1.8293,-1.829,-1.8279,-1.8277,-1.8288,-1.8266,-1.8265,-1.8262,-1.8261,-1.8248,-1.8248,-1.8248,-1.8266,-1.8237,-1.8238,-1.8238,-1.8239,-1.8308,-1.8309,0,0,0,0,0,0,-1.8306,-1.8303,-1.8308,-1.8307,-1.8292,-1.828,-1.8278,-1.8281,-1.8266,-1.8262,-1.8262,-1.8259,-1.8248,-1.8247,-1.8247,-1.8283,-1.8238,-1.8239,-1.8239,-1.8306,-1.8308,-1.8309,0,0,0,0,0,0,-1.8306,-1.8307,-1.8308,-1.8304,-1.8303,-1.8282,-1.8286,-1.8282,-1.8282,-1.8263,-1.8259,-1.8267,-1.8247,-1.8246,-1.8262,-1.8282,-1.8239,-1.8239,-1.8304,-1.8307,-1.8309,-1.8356,0,0,0,0,0,0,-1.8306,-1.8307,-1.832,-1.8304,-1.8304,-1.8324,-1.8288,-1.8283,-1.8283,-1.8279,-1.8266,-1.8263,-1.8245,-1.8262,-1.8263,-1.8282,-1.824,-1.8303,-1.8305,-1.8308,-1.8352,-1.8359,-1.8365,0,0,0,0,0,-1.8306,-1.8334,-1.832,-1.8321,-1.8319,-1.8326,-1.8325,-1.8304,-1.8285,-1.8297,-1.8285,-1.8263,-1.8279,-1.8264,-1.8265,-1.8284,-1.8301,-1.8305,-1.8308,-1.835,-1.8358,-1.8365,0,0,0,0,0,0,-1.8353,-1.8332,-1.8316,-1.8341,-1.8335,-1.8318,-1.8333,-1.8314,-1.8314,-1.831,-1.8284,-1.8282,-1.8301,-1.8294,-1.8277,-1.8314,-1.8287,-1.829,-1.8318,-1.8326,-1.8332,-1.8334,-1.8241,0,0,0,0,0,-1.8366,-1.8373,-1.8354,-1.8377,-1.8375,-1.8355,-1.8357,-1.8341,-1.8335,-1.8332,-1.8321,-1.8315,-1.8319,-1.8322,-1.8324,-1.8351,-1.8347,-1.8364,-1.8371,-1.8376,-1.838,-1.8392,-1.8399,-1.832,-1.832,-1.832,0,0,-1.8393,-1.8382,-1.8389,-1.8386,-1.838,-1.8388,-1.8353,-1.8363,-1.8369,-1.8334,-1.8348,-1.8339,-1.8331,-1.8352,-1.8361,-1.8347,-1.8401,-1.838,-1.8385,-1.8385,-1.8396,-1.8404,-1.841,-1.8322,-1.8322,-1.8322,0,0,-1.8447,-1.844,-1.8458,-1.8452,-1.8443,-1.8429,-1.8433,-1.8418,-1.8411,-1.8425,-1.8398,-1.8404,-1.8411,-1.8406,-1.8404,-1.8453,-1.8433,-1.8455,-1.8488,-1.85,-1.8507,-1.8512,-1.8529,-1.8536,-1.8458,-1.8458,-1.8458,0,-1.8482,-1.8493,-1.847,-1.8481,-1.848,-1.8448,-1.8465,-1.8461,-1.8453,-1.8453,-1.8437,-1.8444,-1.8436,-1.8455,-1.8467,-1.8467,-1.847,-1.8456,-1.8508,-1.8513,-1.8518,-1.8533,-1.854,-1.8461,-1.8461,-1.846,-1.846,0,-1.8537,-1.8544,-1.856,-1.8552,-1.8553,-1.8568,-1.8546,-1.8549,-1.8533,-1.852,-1.8533,-1.8522,-1.8521,-1.8524,-1.8509,-1.8541,-1.8532,-1.8512,-1.8485,-1.8528,-1.8543,-1.8549,-1.8465,-1.8464,-1.8463,-1.8462,0,0,-1.8622,-1.8599,-1.8605,-1.8601,-1.8587,-1.8593,-1.8605,-1.8603,-1.8606,-1.8601,-1.8611,-1.8616,-1.8597,-1.8595,-1.8578,-1.8589,-1.8628,-1.8568,-1.8567,-1.8579,-1.8661,-1.8676,-1.8683,-1.8614,-1.8615,-1.8616,-1.8661,0,-1.8672,-1.8692,-1.867,-1.8694,-1.87,-1.8669,-1.8679,-1.8671,-1.8659,-1.8662,-1.8648,-1.8652,-1.8628,-1.8626,-1.8635,-1.8621,-1.8644,-1.8617,-1.8622,-1.8622,-1.8625,-1.8691,-1.8707,-1.8751,-1.8667,-1.8668,-1.8669,0,-1.8735,-1.8732,-1.8757,-1.8739,-1.8741,-1.8751,-1.8747,-1.875,-1.874,-1.873,-1.8727,-1.8706,-1.8716,-1.8689,-1.8701,-1.8684,-1.8684,-1.8677,-1.8678,-1.8678,-1.8648,-1.8693,-1.8765,-1.8771,-1.8677,-1.8677,-1.8676,0,-1.8794,-1.8796,-1.881,-1.8808,-1.8788,-1.8796,-1.8788,-1.8777,-1.8776,-1.8772,-1.8772,-1.8769,-1.8768,-1.8766,-1.8745,-1.8727,-1.876,-1.8731,-1.8751,-1.8752,-1.8761,-1.8761,-1.8834,-1.8761,-1.876,-1.876,-1.876,0,-1.8853,-1.8869,-1.8836,-1.8846,-1.8862,-1.8836,-1.8853,-1.8842,-1.8832,-1.8838,-1.881,-1.8816,-1.8787,-1.879,-1.8773,-1.8785,-1.8785,-1.8777,-1.8772,-1.878,-1.8781,-1.878,-1.8776,-1.8762,-1.8762,-1.8761,-1.8761,0,-1.8922,-1.8901,-1.8915,-1.8895,-1.889,-1.8903,-1.8886,-1.8893,-1.8878,-1.8885,-1.8886,-1.8862,-1.8864,-1.8842,-1.8839,-1.8828,-1.8848,-1.8838,-1.8851,-1.8848,-1.887,-1.8868,-1.8945,-1.8954,-1.8875,-1.8876,-1.8877,0,-1.8962,-1.8973,-1.8954,-1.8955,-1.8949,-1.8952,-1.8951,-1.8925,-1.8925,-1.8913,-1.8922,-1.8921,-1.8919,-1.8922,-1.8905,-1.8902,-1.8892,-1.8919,-1.8891,-1.8898,-1.8892,-1.8891,-1.8892,-1.8925,-1.8926,-1.8927,-1.8928,0,-1.9034,-1.9022,-1.9022,-1.9018,-1.9017,-1.9013,-1.9006,-1.9009,-1.898,-1.8982,-1.8982,-1.8981,-1.8977,-1.8976,-1.897,-1.8961,-1.894,-1.8936,-1.8941,-1.8948,-1.8956,-1.8952,-1.8867,-1.8935,-1.8934,-1.8933,-1.8933,-1.8933,-1.9089,-1.9097,-1.9084,-1.9085,-1.9077,-1.9071,-1.9076,-1.9061,-1.9061,-1.9056,-1.904,-1.9043,-1.9031,-1.902,-1.9013,-1.9015,-1.9001,-1.9008,-1.901,-1.9012,-1.9016,-1.8955,-1.9013,-1.9013,-1.9013,-1.9013,-1.9013,0,-1.9159,-1.9149,-1.9149,-1.9141,-1.914,-1.9119,-1.911,-1.9111,-1.9114,-1.9105,-1.9102,-1.9102,-1.9101,-1.9082,-1.9078,-1.9083,-1.9073,-1.9083,-1.9082,-1.9081,-1.9028,-1.9025,-1.9091,-1.9091,-1.9091,-1.9091,-1.9091,-1.9091,-1.9196,-1.9208,-1.9195,-1.9202,-1.9191,-1.9194,-1.9191,-1.9185,-1.9176,-1.9178,-1.9176,-1.9163,-1.915,-1.9144,-1.9141,-1.9136,-1.9135,-1.9149,-1.914,-1.9092,-1.9084,-1.9077,-1.9074,-1.9149,-1.9149,-1.9192,-1.9192,-1.9192]}]]